• In Lithuania
  • List of Countries
  • For 7 days
  • Water Temperature
  • Satellite Maps
  • Weather Map
  • Weather Widgets
  • user-avatar
    Login

    Hourly Weather Lloret de Mar

    Today, 16 January, Tuesday

    Time Temperature Precipitation Wind Pressure Humidity
    00:00 +4°C° 0 mm 6 mps 764 mmHg 77%
    01:00 +4°C° 0 mm 6 mps 764 mmHg 75%
    02:00 +4°C° 0 mm 6 mps 764 mmHg 73%
    03:00 +4°C° 0 mm 6 mps 763 mmHg 71%
    04:00 +4°C° 0 mm 6 mps 763 mmHg 69%
    05:00 +5°C° 0 mm 5 mps 763 mmHg 67%
    06:00 +6°C° 0 mm 5 mps 763 mmHg 65%
    07:00 +7°C° 0 mm 5 mps 763 mmHg 62%
    08:00 +8°C° 0 mm 5 mps 763 mmHg 58%
    09:00 +11°C° 0 mm 4 mps 763 mmHg 54%
    10:00 +13°C° 0 mm 4 mps 763 mmHg 48%
    11:00 +15°C° 0 mm 4 mps 762 mmHg 42%
    12:00 +18°C° 0 mm 3 mps 762 mmHg 36%
    13:00 +18°C° 0 mm 3 mps 762 mmHg 38%
    14:00 +18°C° 0 mm 2 mps 762 mmHg 40%
    15:00 +18°C° 0 mm 2 mps 761 mmHg 42%
    16:00 +16°C° 0 mm 2 mps 761 mmHg 49%
    17:00 +14°C° 0 mm 2 mps 761 mmHg 55%
    18:00 +12°C° 0 mm 1 mps 761 mmHg 61%
    19:00 +12°C° 0 mm 1 mps 761 mmHg 63%
    20:00 +12°C° 0 mm 2 mps 761 mmHg 65%
    21:00 +12°C° 0 mm 2 mps 761 mmHg 67%
    22:00 +10°C° 0 mm 2 mps 761 mmHg 69%
    23:00 +10°C° 0 mm 2 mps 761 mmHg 71%

    Tomorrow, 17 January, Wednesday

    Time Temperature Precipitation Wind Pressure Humidity
    00:00 +10°C° 0 mm 3 mps 760 mmHg 72%
    01:00 +10°C° 0 mm 3 mps 760 mmHg 72%
    02:00 +10°C° 0 mm 3 mps 760 mmHg 71%
    03:00 +10°C° 0 mm 3 mps 760 mmHg 71%
    04:00 +9°C° 0 mm 3 mps 760 mmHg 70%
    05:00 +9°C° 0 mm 3 mps 761 mmHg 69%
    06:00 +9°C° 0 mm 3 mps 761 mmHg 68%
    07:00 +10°C° 0 mm 3 mps 761 mmHg 65%
    08:00 +11°C° 0 mm 3 mps 762 mmHg 62%
    09:00 +12°C° 0 mm 3 mps 762 mmHg 59%
    10:00 +13°C° 0 mm 4 mps 763 mmHg 55%
    11:00 +14°C° 0 mm 5 mps 763 mmHg 52%
    12:00 +15°C° 0 mm 5 mps 764 mmHg 48%
    13:00 +15°C° 0 mm 6 mps 764 mmHg 51%
    14:00 +14°C° 0 mm 6 mps 764 mmHg 53%
    15:00 +14°C° 0 mm 7 mps 764 mmHg 56%
    16:00 +12°C° 0 mm 7 mps 765 mmHg 61%
    17:00 +11°C° 0 mm 6 mps 766 mmHg 66%
    18:00 +10°C° 0 mm 6 mps 766 mmHg 71%
    19:00 +9°C° 0 mm 6 mps 767 mmHg 71%
    20:00 +9°C° 0 mm 5 mps 768 mmHg 72%
    21:00 +9°C° 0 mm 5 mps 768 mmHg 73%
    22:00 +10°C° 0 mm 4 mps 768 mmHg 74%
    23:00 +10°C° 0 mm 4 mps 768 mmHg 74%

    Day after tomorrow, 18 January, Thursday

    Time Temperature Precipitation Wind Pressure Humidity
    00:00 +10°C° 0 mm 4 mps 768 mmHg 74%
    01:00 +10°C° 0 mm 3 mps 768 mmHg 76%
    02:00 +9°C° 0 mm 3 mps 768 mmHg 77%
    03:00 +9°C° 0 mm 2 mps 768 mmHg 79%
    04:00 +9°C° 0 mm 2 mps 768 mmHg 79%
    05:00 +9°C° 0 mm 2 mps 768 mmHg 80%
    06:00 +9°C° 0 mm 2 mps 768 mmHg 81%
    07:00 +9°C° 0 mm 3 mps 768 mmHg 80%
    08:00 +10°C° 0 mm 3 mps 768 mmHg 79%
    09:00 +11°C° 0 mm 4 mps 768 mmHg 78%
    10:00 +12°C° 0 mm 4 mps 767 mmHg 75%
    11:00 +13°C° 0 mm 5 mps 766 mmHg 72%
    12:00 +14°C° 0 mm 5 mps 766 mmHg 68%
    13:00 +15°C° 0 mm 5 mps 765 mmHg 66%
    14:00 +15°C° 0 mm 5 mps 764 mmHg 63%
    15:00 +15°C° 0 mm 5 mps 764 mmHg 60%
    16:00 +14°C° 0 mm 4 mps 764 mmHg 67%
    17:00 +12°C° 0 mm 4 mps 763 mmHg 74%
    18:00 +10°C° 0 mm 4 mps 763 mmHg 81%
    19:00 +10°C° 0 mm 4 mps 763 mmHg 80%
    20:00 +10°C° 0 mm 4 mps 763 mmHg 79%
    21:00 +8°C° 0 mm 4 mps 763 mmHg 78%
    22:00 +9°C° 0 mm 3 mps 763 mmHg 77%
    23:00 +9°C° 0 mm 3 mps 762 mmHg 76%

    19 January, Friday

    Time Temperature Precipitation Wind Pressure Humidity
    00:00 +9°C° 0 mm 3 mps 762 mmHg 75%
    01:00 +9°C° 0 mm 3 mps 761 mmHg 74%
    02:00 +9°C° 0 mm 3 mps 761 mmHg 73%
    03:00 +8°C° 0 mm 3 mps 760 mmHg 73%
    04:00 +9°C° 0 mm 3 mps 760 mmHg 71%
    05:00 +9°C° 0 mm 3 mps 759 mmHg 70%
    06:00 +9°C° 0 mm 3 mps 759 mmHg 68%
    07:00 +10°C° 0 mm 3 mps 759 mmHg 66%
    08:00 +11°C° 0 mm 3 mps 759 mmHg 63%
    09:00 +13°C° 0 mm 2 mps 759 mmHg 60%
    10:00 +14°C° 0 mm 2 mps 759 mmHg 57%
    11:00 +15°C° 0 mm 2 mps 758 mmHg 53%
    12:00 +16°C° 0 mm 2 mps 758 mmHg 50%
    13:00 +16°C° 0 mm 3 mps 758 mmHg 53%
    14:00 +14°C° 0 mm 4 mps 757 mmHg 55%
    15:00 +14°C° 0 mm 5 mps 757 mmHg 58%
    16:00 +13°C° 0.1 mm 5 mps 757 mmHg 66%
    17:00 +11°C° 0.1 mm 6 mps 757 mmHg 74%
    18:00 +9°C° 0.1 mm 6 mps 757 mmHg 83%
    19:00 +9°C° 0.8 mm 6 mps 758 mmHg 83%
    20:00 +9°C° 0.8 mm 6 mps 758 mmHg 83%
    21:00 +8°C° 0.8 mm 5 mps 758 mmHg 83%
    22:00 +8°C° 1 mm 5 mps 758 mmHg 82%
    23:00 +8°C° 1 mm 5 mps 758 mmHg 80%

    20 January, Saturday

    Time Temperature Precipitation Wind Pressure Humidity
    00:00 +7°C° 1 mm 5 mps 757 mmHg 79%
    01:00 +7°C° 1.2 mm 5 mps 757 mmHg 78%
    02:00 +6°C° 1.2 mm 5 mps 757 mmHg 77%
    03:00 +5°C° 1.2 mm 5 mps 756 mmHg 76%
    04:00 +5°C° 0.7 mm 5 mps 756 mmHg 77%
    05:00 +5°C° 0.7 mm 5 mps 756 mmHg 78%
    06:00 +4°C° 0.7 mm 6 mps 756 mmHg 79%
    07:00 +4°C° 0.3 mm 7 mps 757 mmHg 75%
    08:00 +5°C° 0.3 mm 8 mps 757 mmHg 70%
    09:00 +5°C° 0.3 mm 9 mps 758 mmHg 66%
    10:00 +6°C° 0 mm 9 mps 758 mmHg 57%
    11:00 +7°C° 0 mm 9 mps 758 mmHg 49%
    12:00 +8°C° 0 mm 9 mps 759 mmHg 40%
    13:00 +8°C° 0 mm 9 mps 758 mmHg 40%
    14:00 +9°C° 0 mm 8 mps 758 mmHg 41%
    15:00 +9°C° 0 mm 8 mps 758 mmHg 42%
    16:00 +7°C° 0 mm 8 mps 758 mmHg 47%
    17:00 +5°C° 0 mm 8 mps 759 mmHg 51%
    18:00 +4°C° 0 mm 8 mps 759 mmHg 56%
    19:00 +4°C° 0 mm 8 mps 760 mmHg 58%
    20:00 +2°C° 0 mm 8 mps 760 mmHg 60%
    21:00 +2°C° 0 mm 8 mps 760 mmHg 62%
    22:00 +3°C° 0 mm 7 mps 760 mmHg 63%
    23:00 +2°C° 0 mm 6 mps 760 mmHg 63%

    21 January, Sunday

    Time Temperature Precipitation Wind Pressure Humidity
    00:00 +2°C° 0 mm 5 mps 759 mmHg 64%
    01:00 +3°C° 0.1 mm 5 mps 759 mmHg 65%
    02:00 +4°C° 0.1 mm 4 mps 758 mmHg 65%
    03:00 +4°C° 0.1 mm 4 mps 757 mmHg 66%
    04:00 +4°C° 0 mm 4 mps 757 mmHg 69%
    05:00 +4°C° 0 mm 4 mps 757 mmHg 71%
    06:00 +4°C° 0 mm 4 mps 756 mmHg 74%
    07:00 +4°C° 0 mm 4 mps 757 mmHg 72%
    08:00 +5°C° 0 mm 5 mps 757 mmHg 70%
    09:00 +6°C° 0 mm 5 mps 758 mmHg 67%
    10:00 +7°C° 0 mm 5 mps 758 mmHg 64%
    11:00 +9°C° 0 mm 5 mps 758 mmHg 61%
    12:00 +10°C° 0 mm 5 mps 758 mmHg 57%
    13:00 +10°C° 0 mm 5 mps 758 mmHg 58%
    14:00 +10°C° 0 mm 5 mps 758 mmHg 59%
    15:00 +12°C° 0 mm 5 mps 758 mmHg 60%
    16:00 +10°C° 0 mm 4 mps 759 mmHg 66%
    17:00 +8°C° 0 mm 4 mps 759 mmHg 72%
    18:00 +6°C° 0 mm 4 mps 760 mmHg 79%
    19:00 +7°C° 0 mm 3 mps 760 mmHg 79%
    20:00 +7°C° 0 mm 3 mps 761 mmHg 79%
    21:00 +6°C° 0 mm 2 mps 761 mmHg 80%
    22:00 +7°C° 0 mm 2 mps 761 mmHg 79%
    23:00 +7°C° 0 mm 2 mps 761 mmHg 79%
    Show more